Simultaneous Nadir Overpasses (SNOs) Predictions

Prediction of SNOs between LANDSAT-8 and NPP Satellite Orbit:

Table of predicted SNOs for the next 14.0 days since TLE Epoch: 10/9/2015
Index Date (LANDSAT-8) Time (LANDSAT-8) Lat,Lon (LANDSAT-8) SZA (LANDSAT-8 ) Date (NPP) Time (NPP) Lat,Lon (NPP) SZA (NPP ) Distance(km) Time Diff (sec)
1 10/10/2015 20:46:29 -70.41, 45.28 102.94 10/10/2015 20:45:27 -70.44, 45.32 102.91 3.31 62
2 10/10/2015 21:35:56 70.31,-147.22 76.98 10/10/2015 21:36:11 70.31,-147.18 76.98 1.83 15
3 10/10/2015 22:25:34 -69.76, 19.63 103.57 10/10/2015 22:26:44 -69.76, 20.98 103.56 51.97 70
4 10/13/2015 13:02:58 -70.40, 161.14 101.94 10/13/2015 13:02:20 -70.39, 161.15 101.95 0.48 38
5 10/13/2015 13:52:25 70.29, -31.36 77.97 10/13/2015 13:53:04 70.27, -31.35 77.95 2.54 39
6 10/16/2015 04:29:50 70.87, 110.10 79.52 10/16/2015 04:28:40 70.91, 108.76 79.56 49.01 70
7 10/16/2015 05:19:27 -70.37, -83.01 100.97 10/16/2015 05:19:13 -70.35, -83.02 100.99 2.47 14
8 10/16/2015 06:08:55 70.21, 84.40 78.88 10/16/2015 06:09:57 70.24, 84.47 78.91 3.52 62
9 10/18/2015 20:46:26 70.40,-134.72 80.02 10/18/2015 20:45:23 70.41,-134.65 80.03 2.77 63
10 10/18/2015 21:35:56 -70.29, 32.76 100.08 10/18/2015 21:36:05 -70.32, 32.80 100.05 3.35 9
11 10/18/2015 22:25:31 69.74,-160.38 79.39 10/18/2015 22:26:40 69.73,-158.99 79.38 53.32 69
12 10/21/2015 13:02:55 70.36, -18.90 80.94 10/21/2015 13:02:16 70.38, -18.84 80.97 3.09 39
13 10/21/2015 13:52:24 -70.31, 148.67
